Find Local Weather

World > North America > United States > Florida

Naples, Florida Regional Weather

Lat: 26.14N, Lon: 81.8W
Wx Zone: FLZ069
Warning FLW WEATHER ALERT - (More Info. Click Here) Warning
Feedback
Expires:201809261500;;241134
ASUS42 KTBW 261417
RWRFL 
FLORIDA REGIONAL WEATHER ROUNDUP
NATIONAL WEATHER SERVICE TAMPA BAY RUSKIN FL
1000 AM EDT WED SEP 26 2018

NOTE: "FAIR" INDICATES FEW OR NO CLOUDS BELOW 12,000 FEET WITH NO
SIGNIFICANT WEATHER AND/OR OBSTRUCTIONS TO VISIBILITY.


FLZ066-069-070-075>078-162-262-165-265-261500-
SOUTHWEST FLORIDA AND KEYS
  
CITY           SKY/WX    TMP DP  RH WIND       PRES   REMARKS
PUNTA GORDA    FAIR      86  76  71 SE3       30.11R HX  96           
FT MYERS       FAIR      83  77  82 E7        30.08R                  
SOUTHWEST INTL FAIR      84  78  82 E9        30.08R HX  95           
NAPLES         FAIR      84  77  79 E8        30.07R                  
MARCO ISLAND   FAIR      84  78  82 MISG      30.08S HX  95           
IMMOKALEE      SUNNY     86  79  79 E7        30.08S HX  99           
MARATHON       FAIR      89  75  63 VRB6      30.06R HX  99           
KEY WEST NAS   FAIR      89  76  65 E13       30.06R HX 100           
KEY WEST INTL  FAIR      88  76  67 E13       30.06R HX  99           

STATION/POSITION SKY/WX   TEMP    WIND        PRES    WAVE   SWELL
                          AIR SEA DIR/SP/G            HT/PER HT/PER
                          (F)     (DEG/KT/KT) (MB)    (FT/S) (FT/S)
NAPLES                     83 87  360/  5/ 10 1018.2R
26.0N   85.6W              84 85  120/  8/ 10 1017.9R   1/ 5   2/ 5
DRY TORTUGAS               84     110/ 12/ 13 1017.7R
SAND KEY                   84                 1017.9R
SOMBRERO KEY               84      70/ 11/ 14 1017.2R
LONG KEY                   85 86  100/ 11/ 15 1017.6R
MOLASSES REEF              84     110/ 14     1017.9

$$

SKY/WX - Weather  TMP - Temperature  DP - Dew Point  RH - Relative Humidity
WIND - Wind Direction/Speed PRES - Barometric Pressure